www.pogodaiklimat.ru

Погода и климат >> Архив погоды >> Россия >> Шпицберген >> Баренцбург


АРХИВ ПОГОДЫ в Баренцбурге

Время (UTC), дата Ветер
(напр.,м/с)
 
Видим.   Явления Облачность Т
(С)
Тd
(С)
f
(%)
Тe
(С)
Тes
(С)
Комфортность P
(гПа)
Po
(гПа)
Тmin
(С)
Tmax
(С)
R
(мм)
R24
(мм)
S
(см)
03 9.07 Ю 5 10 км слабая морось {дождь} 10/10 200 м
[St]
+4.7 +3.6 93 -0 -0 прохладно 1007.1 997.7 +4.5 1
06 9.07 ЮЗ 5-7
{11}
4000 м слабый дождь {морось} 10/10 200 м
[Frnb Ns]
+4.8 +3.5 91 -0 -0 прохладно 1008.1 998.8 +4.5 2
09 9.07 Ю 8-12
{12}
4000 м {дождь, морось} 10/10 300 м
[St]
+5.4 +3.4 87 -0 -0 прохладно 1008.5 999.2
12 9.07 Ю 6-10
{14}
10 км слабый дождь {морось} 10/10 200 м
[St]
+5.5 +3.3 86 +1 +1 прохладно 1008.5 999.2
15 9.07 Ю 9-12
{13}
10 км слабый дождь 10/10 200 м
[Frnb Ns]
+5.3 +4.0 91 -1 -1 холодно 1007.8 998.5 0.9
18 9.07 Ю 7-10
{12}
4000 м слабый дождь 10/10 200 м
[Frnb Ns]
+5.7 +3.7 87 0 0 прохладно 1007.4 998.1 +6.0 0.9
21 9.07 Ю 7-10
{10}
4000 м слабый дождь 10/10 200 м
[Frnb Ns]
+5.3 +4.3 93 -0 -0 прохладно 1006.3 997.0
00 10.07 Ю 9-12
{13}
4000 м слабый дождь 10/10 200 м
[Frnb Ns]
+5.4 +4.6 95 -1 -1 прохладно 1004.5 995.2
03 10.07 Ю 11-14
{15}
4000 м слабый дождь 10/10 200 м
[Frnb Ns]
+5.9 +5.0 94 -1 -1 прохладно 1002.9 993.7 +5.2 7
06 10.07 Ю 8-13
{15}
4000 м слабый дождь 10/10 200 м
[Frnb Ns]
+5.9 +4.8 93 0 0 прохладно 1003.2 993.9 +5.2 8
09 10.07 Ю 8-12
{13}
4000 м слабый дождь 10/10 200 м
[Frnb Ns]
+4.9 +3.8 93 -1 -1 прохладно 1003.9 994.6
12 10.07 Ю 8-12
{15}
4000 м дождь 10/10 200 м
[Frnb Ns]
+5.7 +4.0 89 0 0 прохладно 1002.2 993.0
15 10.07 Ю 12-19
{20}
4000 м дождь 10/10 200 м
[Frnb Ns]
+6.2 +4.4 88 -0 -0 прохладно 1000.6 991.4 6
18 10.07 Ю 10-16
{20}
4000 м слабый дождь 10/10 200 м
[Frnb Ns]
+5.4 +3.4 87 -1 -1 холодно 1000.2 991.0 +6.5 5
21 10.07 Ю 8-12
{16}
4000 м дождь 10/10 200 м
[Frnb Ns]
+4.6 +2.9 89 -2 -2 холодно 1001.4 992.1
00 11.07 Ю 6-9
{12}
10 км слабый дождь 10/10 200 м
[Frnb Ns]
+3.9 +2.3 89 -2 -2 прохладно 1003.3 994.0
03 11.07 Ю 5-8
{11}
10 км слабый дождь 10/10 300 м
[Frnb Ns]
+3.6 +1.8 88 -2 -2 прохладно 1005.4 996.1 +3.4 1
06 11.07 Ю 7-9
{10}
10 км {дождь} 9/9 200 м
[St]
+4.6 +2.5 86 -1 -1 прохладно 1006.6 997.2 +3.4 1
09 11.07 Ю 7-9
{10}
10 км 9/9 200 м
[St]
+5.3 +3.2 86 -0 0 прохладно 1007.1 997.8
12 11.07 Ю 6-9
{12}
10 км 10/10 200 м
[St]
+5.2 +2.7 84 0 0 прохладно 1007.6 998.3
15 11.07 Ю 6 10 км {морось} 9/9 200 м
[St]
+5.4 +2.8 83 0 +1 прохладно 1007.8 998.5 0.0
18 11.07 Ю 6-9
{11}
10 км {морось} 9/9 300 м
[St]
+5.1 +2.3 82 0 0 прохладно 1008.8 999.4 +5.6 0.0
21 11.07 Ю 4-7
{10}
10 км слабый ливневой дождь 10/10 300 м
[Cb cap]
+4.8 +2.7 86 +1 +1 по сезону 1009.9 1000.6
00 12.07 Ю 5 10 км слабый ливневой дождь 10/10 300 м
[Cb cap]
+4.4 +3.0 91 -1 -1 прохладно 1010.2 1000.9
03 12.07 Ю 7-9
{11}
10 км слабый ливневой дождь 9/9 300 м
[Cb cap]
+4.8 +3.7 93 -1 -1 прохладно 1009.3 1000.0 +4.4 0.4
06 12.07 Ю 7-9
{11}
10 км слабый дождь {ливн. осадки} 10/10 300 м
[Frnb Ns]
+5.2 +4.1 93 -0 -0 прохладно 1007.6 998.3 +4.4 0.7
09 12.07 Ю 9-11
{11}
10 км слабый дождь 10/10 200 м
[Frnb Ns]
+6.0 +4.8 92 0 0 прохладно 1005.5 996.2
12 12.07 Ю 6-9
{11}
10 км слабый дождь 10/10 200 м
[Frnb Ns]
+5.8 +3.0 82 +1 +1 прохладно 1004.2 995.0
15 12.07 Ю 5-7
{10}
4000 м дождь 10/10 200 м
[Frnb Ns]
+5.6 +3.8 88 +1 +1 прохладно 1003.9 994.7 4
18 12.07 Ю 5 4000 м слабый дождь 10/10 200 м
[Frnb Ns]
+4.8 +2.7 86 0 0 прохладно 1004.3 995.0 +6.4 4
21 12.07 Ю 6 10 км {дождь} 9/9 300 м
[St]
+4.4 +2.4 87 -1 -1 прохладно 1004.8 995.5
00 13.07 Ю 5-7
{10}
10 км {дождь} 10/10 200 м
[St]
+3.9 +1.9 87 -1 -1 прохладно 1005.3 996.0
03 13.07 Ю 5-8
{10}
10 км 10/10 200 м
[St]
+3.8 +1.5 85 -1 -1 прохладно 1006.3 996.9 +3.8 0.0
06 13.07 ЮЗ 4 20 км 8/8 300 м
[St]
+3.1 +1.2 87 -2 -1 холодно 1007.2 997.8 +3.1 0.0
09 13.07 ЮЗ 4 20 км 9/9 300 м
[St]
+3.9 +1.1 82 -1 -0 прохладно 1008.6 999.2
12 13.07 Ю 4 20 км 9/9 300 м
[St]
+4.7 +1.8 81 +1 +1 прохладно 1009.7 1000.3
15 13.07 Ю 6 20 км 9/8 600 м
[Sc Ci fib]
+4.8 +2.0 82 -0 0 прохладно 1010.2 1000.8
18 13.07 Ю 6 20 км 10/6 300 м
[Sc Ac trans Ci]
+4.9 +2.2 83 -0 0 прохладно 1010.0 1000.6 +5.3
21 13.07 Ю 5 20 км 10/5 300 м
[Sc Ac und]
+4.2 +1.5 83 -1 -1 прохладно 1009.4 1000.0
00 14.07 ЮВ 3 20 км 9/8 300 м
[Sc Ci]
+4.0 +1.5 84 0 0 прохладно 1008.4 999.1
03 14.07 Ю 2 20 км 10/10 300 м
[St]
+4.1 +1.1 81 +1 +1 по сезону 1006.4 997.0 +4.0
06 14.07 В 2 20 км слабый дождь 10/10 200 м
[Frnb Ns]
+3.9 +1.7 86 +1 +1 по сезону 1004.3 995.0 +3.9 0.0
09 14.07 З 1 20 км {дождь} 10/10 300 м
[St]
+4.0 +2.0 87 +3 +3 по сезону 1003.3 994.0
12 14.07 Ю 2 10 км слабая морось {дождь} 10/10 200 м
[St]
+4.0 +2.8 92 +1 +1 прохладно 1003.0 993.7
15 14.07 Ю 5 20 км {морось} 10/10 200 м
[St]
+5.2 +2.9 85 +1 +1 прохладно 1003.5 994.2 1
18 14.07 ЮЗ 2 20 км {морось} 10/10 300 м
[St]
+4.8 +2.4 84 +2 +2 по сезону 1004.5 995.2 +5.5 1
21 14.07 Ю 3 20 км 10/10 600 м
[Sc]
+4.6 +2.0 83 +1 +1 прохладно 1005.9 996.6
00 15.07 Ю 2 20 км 10/10 600 м
[Sc]
+4.1 +1.2 81 +1 +1 по сезону 1007.3 997.9
03 15.07 Ю 1 20 км 10/10 600 м
[Sc]
+4.1 +0.9 80 +3 +3 по сезону 1007.9 998.5 +3.9
06 15.07 С 2 50 км 9/9 300 м
[Sc]
+4.6 +1.8 82 +2 +2 по сезону 1007.8 998.5 +3.9
09 15.07 СВ 4 50 км 1/1 600 м
[Cu hum]
+6.0 +1.9 75 +2 +6 по сезону 1007.7 998.4
12 15.07 СВ 3 50 км 8/0
[Ac cast Ci fib]
+7.6 +2.7 71 +5 +8 по сезону 1007.5 998.3
15 15.07 СЗ 2 50 км 10/10 600 м
[Sc]
+7.2 +3.4 77 +5 +5 по сезону 1007.0 997.7
18 15.07 С 1 50 км 10/10 600 м
[Sc]
+6.5 +3.9 83 +5 +5 по сезону 1006.3 997.0 +8.8
21 15.07 С 2 10 км слабый дождь 10/10 200 м
[Frnb Ns]
+6.3 +4.6 89 +4 +4 по сезону 1006.2 996.9
00 16.07 С 3 10 км слабый дождь 10/10 200 м
[Frnb Ns]
+5.9 +5.0 94 +2 +2 по сезону 1005.3 996.0

 

Местоположение метеостанции Баренцбург (Шпицберген, Россия): широта 78.07 долгота 14.25 высота над уровнем моря 75 м.

В архиве по умолчанию представлена погода в Баренцбурге за последнюю неделю. Архивные данные за месяц целиком и за предыдущие месяцы, начиная с января 2011 года, Вы можете получить, выбрав интересующий диапазон дат из раскрывающегося списка и нажав кнопку "Ввод!".


*Определитесь, кто Вы:
робот инопланетянин человек

Внимание! Время в таблицах - всемирное. Для получения местного времени необходимо прибавить поправку, которая в Баренцбурге равна 1 ч.

Смотрите также архив погоды в соседних городах и на ближайших метеорологических станциях:

Погода в Svalbard Lufthavn (Норвегия) (35 км)
Погода в Akseloya (Норвегия) (45 км)
Погода в Pyramiden (Норвегия) (81 км)
Погода в Ny-Alesund (Норвегия) (108 км)
Погода в Hornsund (Норвегия) (123 км)
Погода в Sorkappoya (Норвегия) (186 км)
Погода в Edgeoya (Норвегия) (196 км)
Погода в Verlegenhuken (Норвегия) (224 км)
Погода в Hopen (Норвегия) (315 км)
Погода в Kongsoya (Норвегия) (337 км)

Пояснения к столбцам:

Ветер - указаны скорость ветра в м/с - средняя за 10 мин, порывы в срок и между сроками (в фигурных скобках) и направление, откуда дует ветер: С - северный, СВ - северо-восточный, В - восточный, ЮВ - юго-восточный, Ю - южный, ЮЗ - юго-западный, З - западный, СЗ - северо-западный.
Видимость - горизонтальная дальность видимости в метрах или километрах. При видимости от 1 до 10 км при отсутствии осадков обычно наблюдается дымка, при ухудшении видимости до 1 км и менее - туман. В сухую погоду видимость может ухудшаться дымом, пылью или мглою.
Явления - указаны атмосферные явления, наблюдавшиеся в срок или в последний час перед сроком; фигурными скобками обозначены явления, наблюдавшиеся между сроками (за 1-3 часа до срока); квадратными скобками обозначены град или гололедные отложения с указанием их диаметра в мм.
Облачность - указаны через наклонную черту общая и нижняя облачность в баллах и высота нижней границы облаков в метрах; квадратными скобками обозначены формы облаков: Ci - перистые, Cs - перисто-слоистые, Cc - перисто-кучевые, Ac - высококучевые, As - высокослоистые, Sc - слоисто-кучевые, Ns - слоисто-дождевые, Cu - кучевые, Cb - кучево-дождевые. Подробнее классификацию облаков см. в Атласе облаков (PDF).
T - Температура воздуха - температура, измеренная на высоте 2 м над землей.
Td - Температура точки росы - температура, при понижении до которой содержащийся в воздухе водяной пар достигнет насыщения.
f - Относительная влажность воздуха - влажноcть воздуха, измеренная на высоте 2 м над землей.
Te - Эффективная температура - температура, которую ощущает одетый по сезону человек в тени. Характеристика душности погоды. При расчете учитывается влияние влажности воздуха и скорости ветра на теплоощущения человека.
Tes - Эффективная температура на солнце - температура, которую ощущает человек, с поправкой на солнечный нагрев. Характеристика знойности погоды. Зависит от высоты солнца над горизонтом, облачности и скорости ветра. Ночью, в пасмурную погоду, а также при ветре 12 м/с и более поправка равна нулю.
P - Атмосферное давление - приведенное к уровню моря атмосферное давление.
Po - Атмосферное давление - измеренное на уровне метеостанции атмосферное давление.
Tmin - Минимальная температура - минимум температуры воздуха на высоте 2 м над землей.
Tmax - Максимальная температура - максимум температуры воздуха на высоте 2 м над землей.
R - Количество осадков - Количество выпавших осадков за период времени, мм. При наведении курсора мыши на число - период времени, за который выпало указанное количество осадков.
R24 - Количество осадков - Количество выпавших осадков за 24 часа, мм.
S - Снежный покров - Высота снежного покрова, см. При наведении курсора мыши на число - состояние снежного покрова и степень покрытия местности в баллах.